Home > Time Zones > World Clock > Weather > Iran > Tabriz > Past weeks

Flag for Iran Weather past 2 weeks in Tabriz, Iran

Now
41 °F

Rain. Overcast.


Feels Like: 36 °F
Forecast: 44 / 60 °F
Wind: 7 mph from Southeast

Location: Tabriz Airport

Current Time: Oct 20, 2014 at 3:49:16 PM

Latest Report: Oct 20, 2014 at 2:50 PM


Visibility: 4 mi

Pressure: 30.12 "Hg

Humidity: 87%

Dew point: 37 °F

Location of TabrizLocation

Historic Weather in Tabriz — Graph

°F

Tabriz temperature yesterday

Maximum temperature yesterday: 61 °F (at 11:30 AM)
Minimum temperature yesterday: 43 °F (at 10:30 PM)
Average temperature yesterday: 51 °F

Past Weeks' High & Low Weather Summary

 TemperatureHumidityPressure
High77 °F (Oct 6, 3:30 PM)100% (Oct 13, 9:30 PM)30.36 "Hg (Oct 13, 9:30 PM)
Low36 °F (Oct 20, 6:30 AM)19% (Oct 6, 4:30 PM)29.86 "Hg (Oct 19, 4:20 AM)
Average58 °F63%30.17 "Hg
* Reported Oct 5 2:30 PM — Oct 20 2:30 PM, Tabriz, Weather by CustomWeather, © 2014

Note: Actual official high and low records may vary slightly from our data, if they occured in-between our weather recording intervals... More about our weather records

Advertising

Tabriz weather history for previous 24 hours

 ConditionsComfort  
Time TempWeatherWind HumidityBarometerVisibility
2:30 PM
Oct 20
43 °FRain. More clouds than sun.12 mph81%30.09 "Hg4 mi
2:00 PM43 °FMore clouds than sun.7 mph76%30.07 "HgN/A
1:30 PM41 °FSprinkles. More clouds than sun.2 mph81%30.07 "Hg5 mi
1:00 PM41 °FMore clouds than sun.7 mph81%30.09 "HgN/A
12:30 PM41 °FLight rain. More clouds than sun.7 mph81%30.09 "Hg5 mi
12:00 PM41 °FLight rain. More clouds than sun.5 mph81%30.12 "Hg4 mi
11:20 AM41 °FSprinkles. More clouds than sun.No wind76%30.12 "Hg5 mi
11:00 AM41 °FMore clouds than sun.5 mph76%30.09 "HgN/A
10:30 AM41 °FMore clouds than sun.12 mph81%30.09 "HgN/A
10:00 AM41 °FMore clouds than sun.5 mph81%30.09 "HgN/A
9:30 AM39 °FMore clouds than sun.5 mph87%30.09 "HgN/A
9:00 AM37 °FMore clouds than sun.No wind100%30.09 "HgN/A
8:30 AM36 °FLight rain. More clouds than sun.2 mph100%30.09 "Hg5 mi
6:30 AM36 °FRain. Fog.2 mph93%30.07 "Hg1 mi
5:30 AM37 °FRain. Fog.2 mph100%30.01 "Hg3 mi
4:30 AM39 °FRain. Fog.2 mph93%30.01 "Hg3 mi
3:30 AM41 °FRain. Fog.7 mph93%30.01 "Hg2 mi
2:20 AM41 °FRain. Fog.7 mph93%29.98 "Hg2 mi
1:30 AM41 °FRain. Fog.5 mph100%29.98 "Hg2 mi
12:30 AM43 °FRain. Fog.9 mph93%29.98 "Hg3 mi
11:30 PM
Oct 19
43 °FRain. Mostly cloudy.12 mph93%29.95 "Hg4 mi
10:30 PM43 °FLight rain. Mostly cloudy.12 mph93%29.95 "Hg4 mi
9:30 PM45 °FLight rain. Fog.14 mph87%29.95 "Hg3 mi
8:30 PM46 °FLight rain. Fog.21 mph87%29.92 "Hg3 mi
7:30 PM46 °FRain. Fog.7 mph93%29.92 "Hg2 mi
6:30 PM46 °FRain. Fog.9 mph93%29.89 "Hg2 mi
6:00 PM46 °FRain. Fog.14 mph93%29.89 "Hg2 mi
5:30 PM48 °FRain. Fog.14 mph87%29.89 "Hg2 mi
5:00 PM48 °FRain. Fog.14 mph87%29.89 "Hg2 mi
4:30 PM48 °FRain. Fog.16 mph94%29.89 "Hg2 mi
4:00 PM48 °FLight rain. Fog.12 mph94%29.89 "Hg2 mi
3:30 PM50 °FLight rain. Fog.12 mph88%29.86 "Hg3 mi
Weather by CustomWeather, © 2014

See weather overviewHow to use our weather pages